Flag for Germany Weather past 2 weeks in Gorleben, Lower Saxony, Germany

Now
77 °F

Scattered clouds.


Feels Like: 79 °F
Forecast: 62 / 82 °F
Wind: 3 mph from South

Location: Marnitz

Current Time: Aug 1, 2014 at 2:56:09 PM

Latest Report: Aug 1, 2014 at 2:00 PM


Visibility: 28 mi

Pressure: 29.92 "Hg

Humidity: 42%

Dew point: 53 °F

Location of GorlebenLocation

Historic Weather in Gorleben — Graph

°F

Gorleben temperature yesterday

Maximum temperature yesterday: 76 °F (at 6:00 PM)
Minimum temperature yesterday: 57 °F (at 6:00 AM)
Average temperature yesterday: 67 °F

Past Weeks' High & Low Weather Summary

 TemperatureHumidityPressure
High90 °F (Jul 20, 4:00 PM)96% (Jul 18, 6:00 AM)30.17 "Hg (Jul 18, 6:00 AM)
Low55 °F (Aug 1, 4:00 AM)28% (Jul 19, 4:00 PM)29.70 "Hg (Jul 30, 5:00 AM)
Average71 °F68%29.95 "Hg
* Reported Jul 17 1:00 PM — Aug 1 1:00 PM, Gorleben, Weather by CustomWeather, © 2014

Note: Actual official high and low records may vary slightly from our data, if they occured in-between our weather recording intervals... More about our weather records

Advertising

Gorleben weather history for previous 24 hours

 ConditionsComfort  
Time TempWeatherWind HumidityBarometerVisibility
1:00 PM
Aug 1
77 °FScattered clouds.3 mph45%29.92 "Hg25 mi
12:00 PM75 °FPassing clouds.5 mph43%29.93 "Hg19 mi
11:00 AM74 °FSunny.3 mph47%29.94 "Hg31 mi
10:00 AM73 °FSunny.3 mph56%29.95 "Hg25 mi
9:00 AM71 °FOvercast.2 mph62%29.94 "Hg19 mi
8:00 AM68 °FPassing clouds.2 mph66%29.95 "Hg19 mi
7:00 AM65 °FScattered clouds.2 mph70%29.94 "Hg12 mi
6:00 AM58 °FPassing clouds.2 mph84%29.95 "Hg16 mi
5:00 AM56 °FClear.2 mph94%29.95 "Hg14 mi
4:00 AM55 °FPassing clouds.1 mph92%29.96 "Hg7 mi
3:00 AM58 °FClear.1 mph88%29.97 "Hg11 mi
2:00 AM57 °FPassing clouds.1 mph88%29.96 "Hg9 mi
1:00 AM59 °FClear.2 mph84%29.96 "Hg15 mi
12:00 AM59 °FClear.1 mph85%29.97 "Hg14 mi
11:00 PM
Jul 31
62 °FClear.1 mph78%29.96 "Hg16 mi
10:00 PM63 °FClear.1 mph79%29.94 "Hg14 mi
9:00 PM67 °FPassing clouds.2 mph68%29.93 "Hg19 mi
8:00 PM73 °FSunny.2 mph47%29.93 "Hg25 mi
7:00 PM75 °FSunny.3 mph41%29.92 "Hg25 mi
6:00 PM76 °FPassing clouds.3 mph41%29.92 "Hg28 mi
5:00 PM75 °FPartly sunny.3 mph39%29.93 "Hg34 mi
4:00 PM75 °FScattered clouds.2 mph46%29.93 "Hg34 mi
3:00 PM75 °FScattered clouds.3 mph51%29.93 "Hg40 mi
2:00 PM72 °FPartly sunny.5 mph52%29.94 "Hg31 mi
Weather by CustomWeather, © 2014

See weather overviewHow to use our weather pages